Location: Temple Hill
(37.3073°N, 88.6303°W)
Time: 17:02:54
(UTC+00:00)

H-2A R/B - Pass Details

Date: 23 November 2020
Orbit: 733 x 836 km, 98.2° (Epoch: 20 January)

Event Time Altitude Azimuth Distance (km) Brightness Sun altitude
Exits shadow 23:25:48 12° 67° (ENE) 2,284 3.8 -9.4°
Maximum altitude 23:26:16 12° 62° (ENE) 2,274 3.8 -9.5°
Drops below altitude 10° 23:28:03 10° 42° (NE) 2,388 4.0 -9.8°
Sets 23:32:01 0° 11° (NNE) 3,298 5.0 -10.6°
